THORAD AGENA D DEB, 17720

Orbit data source: Space-Track

THORAD AGENA D DEB, 17720 is space debris in SSO originally from a launch on Wed, 08 Apr 1970 UTC launched from the Air Force Western Test Range (AFWTR). Debris objects in space refer to the collection of defunct objects orbiting the Earth. Examples of debris include non-operational satellites, rocket bodies, and fragments generated from explosions, collisions, or faulty payload assembly.

Loading next visibility...
Identifier
17720, 1970-025PJ
Orbit
SSO
Country
Flag of USUS
Related business
Manufacturer
Unknown
Mission
Spacecraft
Bus & Motor
Unknown
Mass
Unknown
Launch date (UTC)
1970-04-08 (56 years ago)
Launch vehicle
Unknown
Launch site
Air Force Western Test Range (AFWTR)
Object type
Payload
Rocket body
Debris
Shape & HBR
Unknown shape, 0.1 m
Radar Cross Section
Small (<0.1 m²)

Expand to show TLE details & history
Last TLE update: 1 day ago

TLE from 1 day ago
0 THORAD AGENA D DEB
1 17720U 70025PJ  25340.59516365  .00008232  00000-0  36968-2 0  9994
2 17720  99.6177 215.3844 0032668  16.8682  47.0468 14.22389778 78455
Epoch: 2025-12-06T14:17Z
TLE epoch observation values (Epoch: 2025-12-06T14:17:02.139Z)
Latitude
62.66567°
Longitude
-93.5269°
Altitude
811.996 km
Speed
7.461 km/s
True Right ascension
13h 05m 24s
True Declination
62° 31' 34"
Sunlit
Object was in daylight at epoch
Visualization orbit readout
Latitude
Unknown
Longitude
Unknown
Altitude
Unknown
Speed
Unknown
Apparent Right ascension
Unknown
Apparent Declination
Unknown
Sunlit
N/A
Visualization observer readout
Local Sidereal Time
12:28:42
Azimuth
Unknown
Elevation
Unknown
Doppler factor
Unknown
Orbital elements
Apogee altitude
837.98 km
Perigee altitude
790.986 km
Semi-major axis
7,192.62 km
Eccentricity
0.00327
Inclination
99.6177°
RAAN
215.3844°
Arg. of periapsis
16.8682°
True anomaly
47.32155°
Mean anomaly
47.0468°
Eccentric anomaly
47.1841°
Mean motion
3.55805 °/min
Orbital period
101.18 mins
BSTAR
0.0036968
Loading maneuver chart data...
Computing Atmospheric mass density...

Documentation

Showing up to 5 results
|